Starlink 30053

operational
NORAD ID: 56700 Int'l Des: 2023-067 Owner: SPXS Country: US Constellation: starlink
LEOCIRCULAR

Starlink 30053について

説明を読み込み中...

リアルタイム位置

3D地球を読み込み中...

次回通過

高度履歴

Altitude vs Time

uPlot chart will show altitude changes over time

軌道要素

1 56700U 23067N 25258.41767346 .00001197 00000-0 10369-3 0 9996
2 56700 43.0044 146.9216 0001127 265.6920 94.3793 15.02540000129290
Epoch: Sep 15, 2025 • Age: 23 hours

現在のステータス

高度 565.8 km
速度 7.58 km/s
衛星直下点 -27.92°S, 139.77°W
打ち上げ日 May 19, 2023
運用期間 2.3 years
タイプ internet

技術仕様

分類 Payload
質量 730.00 kg
乾燥質量 700.00 kg
総質量 730.00 kg
長さ 0.30 m
直径 4.10 m
スパン 29.00 m
形状 Box + pan
製造者 SPXS
バスタイプ Starlink V2M
フェーズステータス In Orbit
所有者/国 SPXS/US

大規模コンステレーション

Loading constellations...